IZ0QWM-13 Scandriglia IT current weather conditions

sailwx.info

Wind from 090 at 0 knots gusting 0

Air temperature 11.1° C
Dewpoint 0.2° C

Last reported at 2017-Mar-30 03:54 UTC.
Time now 2017-Mar-30 04:58 UTC

Location: N 42°10' E 012°47'.
View on Google Maps.

See reports from other nearby stations

  
Tides and Currents Weather Stations Pressure Air Temp Water Temp Dewpoint Dewpoint Depression Visibility Wind Speed Wind Dir Waves Ship Positions
date/time (UTC)wind fromknots sea level pressurealtimeterstation pressurevisibilityair tempwater tempwave heightnotes
2017-Mar-30 03:54 090 0 gusting 0 11.1
2017-Mar-30 03:44 090 0 gusting 0 11.1
2017-Mar-30 03:34 090 0 gusting 0 10.0
2017-Mar-30 03:24 090 0 gusting 0 10.0
2017-Mar-30 03:14 090 0 gusting 0 10.0
2017-Mar-30 03:04 090 0 gusting 0 10.0
2017-Mar-30 02:54 130 0 gusting 0 8.9
2017-Mar-30 02:44 130 0 gusting 0 8.9
2017-Mar-30 02:34 090 0 gusting 0 10.0
2017-Mar-30 02:24 090 0 gusting 0 10.0
2017-Mar-30 02:14 110 0 gusting 0 10.0
2017-Mar-30 02:03 110 0 gusting 0 10.0
2017-Mar-30 01:53 090 0 gusting 0 10.0
2017-Mar-30 01:43 090 0 gusting 0 10.0
2017-Mar-30 01:33 090 0 gusting 0 8.9
2017-Mar-30 01:23 090 0 gusting 0 8.9
2017-Mar-30 01:13 140 0 gusting 0 8.9
2017-Mar-30 01:03 140 0 gusting 0 8.9
2017-Mar-30 00:53 090 0 gusting 0 10.0
2017-Mar-30 00:43 090 0 gusting 0 10.0
2017-Mar-30 00:33 090 0 gusting 0 8.9
2017-Mar-30 00:23 090 0 gusting 0 8.9
2017-Mar-30 00:15 090 0 gusting 0 10.0
2017-Mar-30 00:03 090 0 gusting 0 10.0
2017-Mar-29 23:54 090 0 gusting 0 10.0
2017-Mar-29 23:43 090 0 gusting 0 10.0
2017-Mar-29 23:33 090 0 gusting 0 10.0
2017-Mar-29 23:23 090 0 gusting 0 10.0
2017-Mar-29 23:13 090 0 gusting 0 10.0
2017-Mar-29 23:03 090 0 gusting 0 10.0
2017-Mar-29 22:53 090 0 gusting 0 10.0
2017-Mar-29 22:43 090 0 gusting 0 10.0
2017-Mar-29 22:33 240 0 gusting 0 10.0
2017-Mar-29 22:23 240 0 gusting 0 10.0
2017-Mar-29 22:13 270 0 gusting 0 10.0
2017-Mar-29 22:03 270 0 gusting 0 10.0
2017-Mar-29 21:53 10.0
2017-Mar-29 21:43 10.0
2017-Mar-29 21:33 220 0 gusting 0 10.0
2017-Mar-29 21:23 220 0 gusting 0 10.0
2017-Mar-29 21:13 180 0 gusting 0 11.1
2017-Mar-29 21:03 180 0 gusting 0 11.1
2017-Mar-29 20:53 11.1
2017-Mar-29 20:43 11.1
2017-Mar-29 20:33 12.2
2017-Mar-29 20:23 12.2
2017-Mar-29 20:13 090 0 gusting 0 12.2
2017-Mar-29 20:03 090 0 gusting 0 12.2
2017-Mar-29 19:53 090 0 gusting 0 12.8
2017-Mar-29 19:43 090 0 gusting 0 12.8
2017-Mar-29 19:33 090 0 gusting 0 13.9
2017-Mar-29 19:23 090 0 gusting 0 13.9
2017-Mar-29 19:13 090 0 gusting 0 15.0
2017-Mar-29 19:03 090 0 gusting 0 15.0
2017-Mar-29 18:53 010 0 gusting 0 15.0
2017-Mar-29 18:43 010 0 gusting 0 15.0
2017-Mar-29 18:33 300 0 gusting 0 16.1
2017-Mar-29 18:23 300 0 gusting 0 16.1
2017-Mar-29 18:13 320 0 gusting 0 17.2
2017-Mar-29 18:03 320 0 gusting 0 17.2
2017-Mar-29 17:53 270 0 gusting 0 17.8
2017-Mar-29 17:43 270 0 gusting 0 17.8
2017-Mar-29 17:33 090 0 gusting 0 18.9
2017-Mar-29 17:23 090 0 gusting 0 18.9
2017-Mar-29 17:13 070 1 gusting 1 18.9
2017-Mar-29 17:03 070 1 gusting 1 18.9
2017-Mar-29 16:53 090 1 gusting 1 20.0
2017-Mar-29 16:43 090 1 gusting 1 20.0
2017-Mar-29 16:33 050 0 gusting 0 21.1
2017-Mar-29 16:23 050 0 gusting 0 21.1
2017-Mar-29 16:13 090 1 gusting 1 22.2
2017-Mar-29 16:03 090 1 gusting 1 22.2
2017-Mar-29 15:53 090 1 gusting 1 22.8
2017-Mar-29 15:43 090 1 gusting 1 22.8
2017-Mar-29 15:33 090 0 gusting 0 22.8
2017-Mar-29 15:23 090 0 gusting 0 22.8
2017-Mar-29 15:13 070 0 gusting 0 23.9
2017-Mar-29 15:03 070 0 gusting 0 23.9
2017-Mar-29 14:53 090 0 gusting 0 22.8
2017-Mar-29 14:43 090 0 gusting 0 22.8
2017-Mar-29 14:33 080 1 gusting 1 22.8
2017-Mar-29 14:23 080 1 gusting 1 22.8
2017-Mar-29 14:13 090 0 gusting 0 22.8
2017-Mar-29 14:03 090 0 gusting 0 22.8
2017-Mar-29 13:53 110 0 gusting 0 22.8
2017-Mar-29 13:43 110 0 gusting 0 22.8
2017-Mar-29 13:33 020 0 gusting 0 22.8
2017-Mar-29 13:23 020 0 gusting 0 22.8
2017-Mar-29 13:13 290 0 gusting 0 22.8
2017-Mar-29 13:03 290 0 gusting 0 22.8
2017-Mar-29 12:53 270 0 gusting 0 22.2
2017-Mar-29 12:43 270 0 gusting 0 22.2
2017-Mar-29 12:33 030 0 gusting 0 22.2
2017-Mar-29 12:23 030 0 gusting 0 22.2
2017-Mar-29 12:13 070 0 gusting 0 21.1
2017-Mar-29 12:03 070 0 gusting 0 21.1
2017-Mar-29 11:53 050 0 gusting 0 20.0
2017-Mar-29 11:43 050 0 gusting 0 20.0
2017-Mar-29 11:33 090 0 gusting 0 20.0
2017-Mar-29 11:23 090 0 gusting 0 20.0
2017-Mar-29 11:13 090 1 gusting 1 18.9
2017-Mar-29 11:03 090 1 gusting 1 18.9
2017-Mar-29 10:53 090 1 gusting 1 17.8
2017-Mar-29 10:43 090 1 gusting 1 17.8
2017-Mar-29 10:33 090 0 gusting 0 17.8
2017-Mar-29 10:23 090 0 gusting 0 17.8
2017-Mar-29 10:13 330 1 gusting 1 17.2
2017-Mar-29 10:03 300 0 gusting 0 17.2
2017-Mar-29 09:53 300 0 gusting 0 17.2
2017-Mar-29 09:43 300 0 gusting 0 17.2
2017-Mar-29 09:33 320 0 gusting 0 16.1
2017-Mar-29 09:23 320 0 gusting 0 16.1
2017-Mar-29 09:13 270 0 gusting 0 15.0
2017-Mar-29 09:03 270 0 gusting 0 15.0
2017-Mar-29 08:53 12.2
2017-Mar-29 08:43 12.2
2017-Mar-29 08:33 270 0 gusting 0 12.2
2017-Mar-29 08:23 270 0 gusting 0 12.2
2017-Mar-29 08:13 270 0 gusting 0 11.1
2017-Mar-29 08:03 270 0 gusting 0 11.1
2017-Mar-29 07:53 350 0 gusting 0 10.0
2017-Mar-29 07:43 350 0 gusting 0 10.0
2017-Mar-29 07:33 090 0 gusting 0 7.8
2017-Mar-29 07:23 090 0 gusting 0 7.8
2017-Mar-29 07:13 7.2
2017-Mar-29 07:03 7.2
2017-Mar-29 06:53 140 0 gusting 0 6.1
2017-Mar-29 06:43 140 0 gusting 0 6.1
2017-Mar-29 06:33 130 0 gusting 0 6.1
2017-Mar-29 06:23 130 0 gusting 0 6.1
2017-Mar-29 06:13 090 0 gusting 0 5.0
2017-Mar-29 06:03 090 0 gusting 0 5.0
2017-Mar-29 05:53 090 0 gusting 0 5.0
2017-Mar-29 05:43 090 0 gusting 0 5.0
2017-Mar-29 05:33 5.0
2017-Mar-29 05:23 5.0
2017-Mar-29 05:13 090 0 gusting 0 3.9
2017-Mar-29 05:03 090 0 gusting 0 3.9
2017-Mar-29 04:53 090 0 gusting 0 5.0
2017-Mar-29 04:43 090 0 gusting 0 5.0
2017-Mar-29 04:33 090 0 gusting 0 5.0
2017-Mar-29 04:23 090 0 gusting 0 5.0
2017-Mar-29 04:13 5.0
2017-Mar-29 04:03 5.0
2017-Mar-29 03:53 5.0
2017-Mar-29 03:43 5.0
2017-Mar-29 03:33 230 0 gusting 0 5.0
2017-Mar-29 03:23 230 0 gusting 0 5.0
2017-Mar-29 03:13 230 0 gusting 0 5.0
2017-Mar-29 03:03 230 0 gusting 0 5.0
2017-Mar-29 02:53 230 0 gusting 0 5.0
2017-Mar-29 02:43 230 0 gusting 0 5.0
2017-Mar-29 02:33 090 0 gusting 0 5.0
2017-Mar-29 02:23 090 0 gusting 0 5.0
2017-Mar-29 02:13 090 0 gusting 0 5.0
2017-Mar-29 02:03 090 0 gusting 0 5.0
2017-Mar-29 01:53 210 0 gusting 0 5.0
2017-Mar-29 01:43 210 0 gusting 0 5.0
2017-Mar-29 01:33 240 0 gusting 0 5.0
2017-Mar-29 01:23 240 0 gusting 0 5.0
2017-Mar-29 01:13 230 0 gusting 0 5.0
2017-Mar-29 01:03 230 0 gusting 0 5.0
2017-Mar-29 00:53 270 0 gusting 0 6.1
2017-Mar-29 00:43 270 0 gusting 0 6.1
2017-Mar-29 00:33 270 0 gusting 0 6.1
2017-Mar-29 00:23 270 0 gusting 0 6.1
2017-Mar-29 00:13 230 0 gusting 0 6.1
2017-Mar-29 00:03 230 0 gusting 0 6.1
2017-Mar-28 23:53 230 0 gusting 0 6.1
2017-Mar-28 23:43 230 0 gusting 0 6.1
2017-Mar-28 23:33 270 0 gusting 0 7.2
2017-Mar-28 23:23 270 0 gusting 0 7.2
2017-Mar-28 23:13 230 0 gusting 0 7.2
2017-Mar-28 23:03 230 0 gusting 0 7.2
2017-Mar-28 22:53 270 0 gusting 0 7.2
2017-Mar-28 22:43 270 0 gusting 0 7.2
2017-Mar-28 22:33 240 0 gusting 0 7.2
2017-Mar-28 22:23 240 0 gusting 0 7.2
2017-Mar-28 22:13 7.2
2017-Mar-28 22:03 7.2
2017-Mar-28 21:53 140 0 gusting 0 7.8
2017-Mar-28 21:43 140 0 gusting 0 7.8
2017-Mar-28 21:33 7.8
2017-Mar-28 21:23 7.8
2017-Mar-28 21:13 320 0 gusting 0 7.8
2017-Mar-28 21:03 320 0 gusting 0 7.8
2017-Mar-28 20:53 320 0 gusting 0 8.9
2017-Mar-28 20:43 320 0 gusting 0 8.9
2017-Mar-28 20:33 270 0 gusting 0 8.9
2017-Mar-28 20:23 270 0 gusting 0 8.9
2017-Mar-28 20:13 090 0 gusting 0 10.0
2017-Mar-28 20:03 090 0 gusting 0 10.0
2017-Mar-28 19:53 11.1
2017-Mar-28 19:43 11.1
2017-Mar-28 19:33 11.1
2017-Mar-28 19:23 11.1
2017-Mar-28 19:13 12.2
2017-Mar-28 19:03 12.2
2017-Mar-28 18:53 290 0 gusting 0 12.8
2017-Mar-28 18:43 290 0 gusting 0 12.8
2017-Mar-28 18:33 050 0 gusting 0 12.8
2017-Mar-28 18:23 050 0 gusting 0 12.8
2017-Mar-28 18:13 060 0 gusting 0 12.8
2017-Mar-28 18:03 060 0 gusting 0 12.8
2017-Mar-28 17:53 080 1 gusting 1 13.9
2017-Mar-28 17:43 080 1 gusting 1 13.9
2017-Mar-28 17:33 080 1 gusting 1 15.0
2017-Mar-28 17:23 080 1 gusting 1 15.0
2017-Mar-28 17:13 060 0 gusting 0 17.2
2017-Mar-28 17:03 060 0 gusting 0 17.2
2017-Mar-28 16:53 080 1 gusting 1 17.2
2017-Mar-28 16:43 080 1 gusting 1 17.2
2017-Mar-28 16:33 090 1 gusting 1 17.8
2017-Mar-28 16:23 090 1 gusting 1 17.8
2017-Mar-28 16:13 090 0 gusting 0 18.9
2017-Mar-28 16:03 090 0 gusting 0 18.9
2017-Mar-28 15:53 110 0 gusting 0 18.9
2017-Mar-28 15:43 110 0 gusting 0 18.9
2017-Mar-28 15:33 270 0 gusting 0 18.9
2017-Mar-28 15:23 270 0 gusting 0 18.9
2017-Mar-28 15:13 090 1 gusting 1 18.9
2017-Mar-28 15:03 090 1 gusting 1 18.9
2017-Mar-28 14:53 300 0 gusting 0 20.0
2017-Mar-28 14:43 300 0 gusting 0 20.0
2017-Mar-28 14:33 290 0 gusting 0 20.0
2017-Mar-28 14:23 290 0 gusting 0 20.0
2017-Mar-28 14:13 320 0 gusting 0 20.0
2017-Mar-28 14:03 320 0 gusting 0 20.0
2017-Mar-28 13:53 290 0 gusting 0 20.0
2017-Mar-28 13:43 290 0 gusting 0 20.0
2017-Mar-28 13:33 170 0 gusting 0 20.0
2017-Mar-28 13:23 170 0 gusting 0 20.0
2017-Mar-28 13:13 070 1 gusting 1 20.0
2017-Mar-28 13:03 070 1 gusting 1 20.0
2017-Mar-28 12:53 300 0 gusting 0 18.9
2017-Mar-28 12:43 300 0 gusting 0 18.9
2017-Mar-28 12:33 090 0 gusting 0 18.9
2017-Mar-28 12:23 090 0 gusting 0 18.9
2017-Mar-28 12:13 300 0 gusting 0 18.9
2017-Mar-28 12:03 300 0 gusting 0 18.9
2017-Mar-28 11:53 300 0 gusting 0 18.9
2017-Mar-28 11:43 300 0 gusting 0 18.9
2017-Mar-28 11:33 090 0 gusting 0 17.8
2017-Mar-28 11:23 090 0 gusting 0 17.8
2017-Mar-28 11:13 270 0 gusting 0 17.8
2017-Mar-28 11:03 270 0 gusting 0 17.8
2017-Mar-28 10:53 090 0 gusting 0 17.2
2017-Mar-28 10:43 090 0 gusting 0 17.2
2017-Mar-28 10:33 080 0 gusting 0 17.2
2017-Mar-28 10:23 080 0 gusting 0 17.2
2017-Mar-28 10:13 090 0 gusting 0 17.2
2017-Mar-28 10:03 090 0 gusting 0 17.2
2017-Mar-28 09:53 050 0 gusting 0 17.2
2017-Mar-28 09:43 050 0 gusting 0 17.2
2017-Mar-28 09:33 320 0 gusting 0 16.1
2017-Mar-28 09:23 320 0 gusting 0 16.1
2017-Mar-28 09:13 060 0 gusting 0 15.0
2017-Mar-28 09:03 060 0 gusting 0 15.0
2017-Mar-28 08:53 090 0 gusting 0 12.8
2017-Mar-28 08:43 090 0 gusting 0 12.8
2017-Mar-28 08:33 270 0 gusting 0 11.1
2017-Mar-28 08:23 270 0 gusting 0 11.1
2017-Mar-28 08:13 270 0 gusting 0 10.0
2017-Mar-28 08:03 270 0 gusting 0 10.0
2017-Mar-28 07:53 8.9
2017-Mar-28 07:43 8.9
2017-Mar-28 07:33 090 0 gusting 0 7.2
2017-Mar-28 07:23 090 0 gusting 0 7.2
2017-Mar-28 07:13 090 0 gusting 0 6.1
2017-Mar-28 07:03 090 0 gusting 0 6.1
2017-Mar-28 06:53 090 0 gusting 0 5.0
2017-Mar-28 06:43 090 0 gusting 0 5.0
2017-Mar-28 06:33 110 0 gusting 0 5.0
2017-Mar-28 06:23 110 0 gusting 0 5.0
2017-Mar-28 06:13 110 0 gusting 0 3.9
2017-Mar-28 06:03 110 0 gusting 0 3.9
2017-Mar-28 05:53 090 0 gusting 0 3.9
2017-Mar-28 05:43 090 0 gusting 0 3.9
2017-Mar-28 05:33 090 0 gusting 0 3.9
2017-Mar-28 05:23 090 0 gusting 0 3.9
2017-Mar-28 05:13 090 0 gusting 0 5.0
2017-Mar-28 05:03 090 0 gusting 0 5.0
2017-Mar-28 04:54 090 0 gusting 0 5.0
2017-Mar-28 04:44 090 0 gusting 0 5.0
2017-Mar-28 04:34 090 0 gusting 0 5.0
2017-Mar-28 04:24 090 0 gusting 0 5.0
2017-Mar-28 04:14 090 0 gusting 0 5.0
2017-Mar-28 04:04 090 0 gusting 0 5.0